GFSNGP_700_temp_021.txt.gz
Temp
5 7 6 7 9 9 9 11 12 13 13 12 13 14 15 16 17 16 17 17 17 17 18 18 18 18 19 19 18 18 17 17 17 16 16 15 15 14 15 14 14 13 13 13
3 4 4 5 7 8 8 9 9 10 10 11 12 12 13 14 15 16 16 16 17 17 17 17 18 19 19 19 18 18 17 17 17 17 16 16 15 14 14 15 14 14 13 13
4 3 4 5 7 7 7 8 9 10 10 12 13 13 13 14 14 15 16 16 17 17 17 17 18 19 19 19 19 18 18 17 17 17 17 16 16 15 15 15 15 15 14 13
2 2 5 7 8 8 9 10 10 11 11 12 13 14 14 14 14 15 16 17 17 17 17 17 18 18 19 19 19 18 18 18 18 18 17 17 16 16 15 15 15 15 15 14
2 3 5 6 6 7 8 9 10 11 12 13 13 13 14 15 15 16 16 17 17 17 17 18 18 18 19 18 18 18 18 18 18 18 18 17 17 16 16 15 15 15 15 14
0 3 5 6 7 6 7 7 9 11 12 13 13 13 14 15 16 16 16 16 17 17 17 18 18 18 19 19 18 18 18 18 18 18 17 18 17 16 16 15 15 15 15 15
-2 0 3 4 6 6 7 9 9 10 12 13 14 14 15 15 15 16 16 16 17 17 17 17 18 18 18 18 18 18 18 18 18 18 18 18 17 17 16 16 15 15 15 15
-3 -1 0 3 5 4 7 8 9 10 11 13 14 14 15 15 16 16 16 16 17 17 17 17 17 17 18 18 18 18 18 18 18 18 18 18 17 17 16 16 15 15 15 14
-2 -0 1 2 4 5 6 7 9 10 11 12 14 14 15 15 16 15 16 16 17 17 17 17 17 17 17 17 18 18 18 18 18 18 18 18 18 17 16 16 16 16 16 15
-3 -2 -1 1 3 3 5 7 8 9 11 12 13 15 15 15 15 15 16 16 16 17 17 17 17 17 17 17 17 17 17 17 17 18 18 17 17 17 17 17 17 16 16 16
-3 -2 0 1 1 1 3 5 8 9 9 10 12 14 14 14 14 14 15 16 16 16 17 17 17 17 17 17 17 17 17 17 17 17 17 17 17 17 17 17 16 16 15 16
-3 -2 -1 1 1 1 2 3 6 8 9 9 11 10 11 11 12 12 13 13 14 14 15 15 15 16 16 16 16 16 17 17 17 17 17 17 17 17 17 17 16 16 16 16
-3 -3 -1 0 1 1 2 2 3 5 7 9 9 9 10 10 11 11 12 12 13 13 14 14 14 14 15 15 15 15 16 16 16 16 16 16 16 16 16 16 16 15 15 16
-3 -3 1 1 1 1 2 3 2 5 6 8 9 9 9 9 10 10 10 11 12 12 13 13 14 14 14 14 14 15 15 15 15 15 15 15 15 15 15 16 15 15 15 14
-3 -1 1 0 1 2 3 3 3 4 5 7 7 8 9 9 9 9 10 10 11 12 12 12 13 13 13 14 14 14 14 14 14 14 14 14 13 13 13 13 11 12 9 9
-2 -2 -1 1 2 1 3 3 3 4 4 6 7 8 8 8 8 9 8 8 8 10 11 12 13 13 14 14 13 12 11 11 12 13 13 13 13 10 9 10 7 7 9 9
-1 -1 -0 0 -0 1 3 2 2 3 4 5 7 7 7 7 7 6 6 5 6 9 10 11 11 11 10 10 10 10 10 11 11 12 12 12 8 8 9 7 7 7 4 5
0 0 -0 0 0 1 1 1 2 3 3 5 5 6 6 6 5 5 3 3 5 8 6 6 7 7 7 7 8 8 8 9 9 9 9 8 8 8 8 6 6 5 4 6
-0 0 0 -0 0 0 0 1 1 1 2 3 3 4 2 2 1 2 3 3 4 5 5 5 5 5 5 6 6 6 6 7 7 7 7 6 6 6 7 5 6 6 5 5
-0 -0 -0 0 0 0 0 1 1 1 1 1 2 1 0 0 1 1 1 2 2 3 3 3 4 4 4 5 5 5 5 5 5 6 6 5 5 5 5 5 5 5 5 4
-0 -0 -0 0 -0 -0 -1 -1 -2 -1 -1 -1 0 1 1 -0 0 1 1 2 1 1 1 1 2 2 2 2 2 2 3 3 4 4 5 5 5 5 5 5 5 5 5 6
-1 -1 -1 -1 -1 -1 -1 -1 -1 -1 -1 -1 -1 -1 -1 0 0 0 0 0 -1 -1 -0 1 2 1 1 1 2 2 2 2 2 2 3 3 4 4 4 4 4 4 4 4
-2 -2 -2 -2 -2 -2 -1 -1 -1 -1 -1 -1 -1 -1 -1 -1 -1 -1 -0 -1 -1 -1 -0 0 0 -0 0 0 1 1 1 1 1 1 1 1 1 2 1 1 1 2 3 3
-3 -3 -2 -3 -3 -2 -2 -3 -3 -2 -2 -2 -2 -2 -2 -1 -1 -0 -0 -1 -2 -2 -1 -1 -1 -0 0 0 0 0 0 1 1 1 1 1 1 1 1 1 1 1 2 1
-3 -3 -3 -2 -2 -2 -3 -3 -3 -2 -2 -3 -2 -2 -2 -2 -2 -2 -1 -2 -2 -2 -1 -1 -1 -0 -0 0 0 -0 -0 -1 -1 -1 -0 -0 -0 -0 -0 -0 0 1 1 1
-4 -3 -4 -4 -3 -3 -3 -3 -3 -3 -3 -2 -2 -3 -2 -3 -2 -2 -3 -3 -3 -2 -2 -1 -1 -1 -1 -1 -1 -1 -1 -1 -1 -1 -1 -1 -1 -1 -1 -1 -1 -1 -0 -1
-5 -4 -4 -4 -4 -4 -4 -4 -4 -4 -4 -4 -4 -5 -5 -5 -5 -4 -4 -3 -3 -3 -2 -2 -2 -2 -2 -2 -2 -2 -2 -2 -2 -2 -3 -3 -2 -2 -2 -1 -2 -2 -1 -1

GFSNGP_700_temp_024.txt.gz
Temp
10 9 10 13 13 13 14 14 15 16 16 15 15 15 14 14 14 16 16 16 16 17 17 18 18 18 18 18 18 18 17 17 17 16 16 15 15 14 14 13 13 13 13 13
7 7 7 9 10 12 13 14 14 14 15 15 15 14 14 13 15 16 16 16 16 17 17 17 17 18 18 18 18 18 18 17 17 17 16 16 15 15 14 14 14 13 14 14
8 8 8 8 9 9 10 11 11 12 12 13 13 12 13 15 15 15 16 16 16 16 17 17 17 18 18 18 18 18 18 18 17 17 17 16 16 16 15 15 14 14 15 15
7 6 8 10 11 10 10 10 10 11 11 12 12 12 12 13 13 15 15 16 17 17 16 17 17 17 18 19 19 19 19 18 18 17 17 17 17 17 16 16 15 15 15 15
5 6 9 9 8 8 9 10 11 11 11 11 11 12 12 14 14 15 16 16 16 17 17 17 17 17 18 19 19 19 19 18 18 18 18 17 17 17 17 16 16 16 16 15
4 5 8 9 8 7 7 9 10 9 9 10 10 12 13 15 14 14 15 16 16 17 17 17 17 17 18 18 19 19 19 18 18 18 18 18 18 17 17 17 16 16 16 16
2 4 6 7 5 5 7 8 6 7 7 10 11 11 13 13 14 15 16 16 16 16 17 17 17 18 18 18 18 19 18 18 18 18 18 18 18 18 18 17 17 16 16 16
1 2 4 5 4 5 5 5 6 7 9 10 11 12 13 14 14 15 15 16 16 16 16 17 17 17 17 18 18 18 18 18 18 18 18 18 18 18 18 18 17 17 16 16
2 2 2 3 3 3 5 5 7 9 9 10 11 12 13 14 15 15 15 15 16 16 16 17 17 17 17 17 18 18 18 18 18 18 18 18 18 18 18 18 17 17 17 16
-1 -0 0 -0 1 1 1 5 6 7 8 10 11 12 13 14 14 14 15 15 16 16 16 17 17 17 17 17 17 17 18 18 18 18 18 18 18 18 18 18 18 17 17 17
-2 -2 -1 -0 -0 0 0 1 6 7 8 10 11 11 13 13 14 14 15 15 15 16 16 16 17 17 17 17 17 17 17 17 17 17 17 17 17 17 17 17 17 17 16 16
-2 -2 -2 -1 -1 -0 -0 2 4 5 7 9 11 10 11 13 13 13 14 14 15 15 15 16 16 16 17 17 17 17 17 17 17 17 17 17 17 17 17 17 17 17 16 16
-3 -2 -2 -2 -3 0 1 2 3 4 5 8 11 10 10 12 12 11 11 11 12 13 13 14 14 15 15 16 16 16 16 16 16 16 16 16 16 16 16 17 17 16 16 16
-4 -4 -3 -3 -2 0 1 1 2 3 5 6 7 7 7 9 9 9 10 10 11 11 11 12 12 13 13 14 14 15 15 15 15 15 15 16 16 16 16 15 15 16 16 15
-3 -3 -2 -2 -2 1 1 1 3 4 5 5 6 6 7 7 8 9 10 10 10 11 11 12 12 12 13 13 14 14 14 14 15 15 15 15 15 15 15 14 14 14 14 14
-3 -3 -2 -1 -0 0 1 3 3 3 4 5 6 5 6 6 7 8 9 9 10 10 10 11 11 11 12 12 12 13 13 14 14 14 14 14 13 13 12 12 13 13 14 14
-2 -2 -2 -2 -0 1 3 3 2 3 4 5 5 5 5 5 6 7 8 8 9 8 8 8 9 9 9 9 8 9 10 10 10 11 11 11 12 12 11 10 11 12 11 8
-2 -1 -1 -1 -0 1 1 2 2 2 2 4 4 3 5 5 5 5 6 6 7 7 7 7 7 7 6 7 7 7 8 9 9 9 9 9 9 9 9 9 9 8 8 7
-0 -0 0 -0 -0 0 0 0 1 2 1 2 2 3 3 3 3 5 6 6 6 7 7 8 6 8 6 6 6 6 7 7 7 7 7 7 7 7 7 6 7 7 8 8
-1 -0 -0 -1 -0 -0 -0 1 1 0 1 1 1 2 2 2 2 2 3 4 3 4 4 6 5 5 4 5 5 6 6 6 6 6 6 6 6 6 7 6 6 5 5 5
-2 -1 -1 -1 -1 -0 -1 -1 -1 -1 -0 0 1 1 1 1 1 1 2 2 2 2 2 3 2 2 3 3 4 4 3 4 4 4 5 5 5 5 5 6 6 6 5 5
-2 -2 -2 -2 -2 -1 -1 -1 -1 -1 -1 -2 -2 -1 -1 -0 -0 0 1 1 1 1 1 1 1 2 1 1 2 2 2 2 2 2 3 3 3 4 4 4 4 4 4 4
-3 -3 -2 -2 -2 -2 -2 -2 -2 -2 -2 -2 -2 -2 -2 -1 -1 -1 0 1 -0 -0 -0 0 1 0 1 1 1 1 1 1 1 1 2 2 1 1 2 2 3 3 2 3
-3 -3 -2 -2 -2 -2 -2 -2 -2 -2 -2 -1 -2 -2 -1 -1 -1 -1 -1 -0 -0 -1 -0 -0 0 1 1 1 0 0 0 0 1 1 1 1 1 1 1 1 1 2 1 2
-4 -4 -3 -3 -3 -2 -2 -2 -3 -3 -2 -2 -2 -2 -2 -1 -1 -1 -1 -1 -1 -1 -0 -0 -0 0 0 1 0 0 0 -0 -0 -1 -0 0 -0 -0 0 0 0 0 -0 0
-4 -4 -4 -4 -3 -3 -3 -3 -3 -3 -2 -3 -3 -3 -3 -2 -2 -2 -2 -2 -2 -2 -1 -1 -1 -1 -1 -0 -0 -0 -0 -0 -0 -0 -1 -1 -1 -1 -1 -0 -0 -0 -0 -0
-5 -5 -5 -4 -4 -4 -4 -4 -4 -4 -4 -4 -4 -4 -3 -3 -3 -3 -3 -2 -2 -2 -2 -1 -1 -1 -1 -1 -1 -1 -1 -1 -1 -1 -2 -2 -2 -2 -1 -1 -1 -1 -1 -1

GFSNGP_700_temp_030.txt.gz
Temp
14 16 17 17 16 17 17 18 18 19 19 18 18 18 18 18 18 18 18 18 18 18 17 17 16 16 15 16 17 17 17 17 17 16 16 16 16 15 15 15 15 15 15 15
12 14 15 16 17 17 17 17 18 18 20 18 17 17 17 17 17 17 17 17 17 17 17 16 16 16 16 16 16 17 17 17 17 17 17 16 16 16 16 16 15 15 15 15
10 12 14 15 16 17 17 17 18 18 19 18 17 17 16 16 16 15 15 16 16 16 17 16 16 16 16 17 17 17 18 18 18 18 18 17 17 17 17 17 16 16 16 16
8 11 12 14 15 15 17 17 17 18 18 18 17 16 16 15 15 15 15 15 15 15 15 16 17 17 17 18 17 18 18 18 18 18 18 18 18 17 17 17 17 16 16 16
8 10 12 13 14 14 15 17 17 17 17 16 16 15 15 14 14 14 14 14 14 14 15 16 16 16 16 16 17 17 17 18 18 18 18 19 19 18 18 17 17 17 16 16
7 10 12 13 13 14 14 14 14 14 15 15 14 14 14 14 13 13 13 13 14 14 15 15 16 16 16 16 16 17 18 18 18 18 18 19 19 19 18 17 17 17 17 16
5 7 10 9 11 12 14 9 10 12 13 13 13 13 11 13 13 13 14 14 14 14 14 15 15 15 15 15 15 17 18 18 18 18 18 19 19 19 18 18 17 17 17 17
5 6 7 7 9 9 6 6 9 10 9 11 11 11 10 11 12 13 14 14 14 14 14 14 14 15 15 16 17 17 17 17 18 18 18 18 19 18 18 18 18 17 17 17
4 6 6 5 5 4 5 5 6 6 6 5 6 8 8 12 13 12 12 12 13 14 14 14 15 15 16 16 16 17 16 17 17 17 18 18 18 18 18 18 18 17 17 17
2 3 4 3 3 4 3 4 4 4 5 4 4 7 10 12 12 11 9 12 13 14 14 13 15 15 16 16 17 17 17 17 17 17 17 17 17 17 17 18 17 17 17 17
1 2 2 2 3 2 2 2 3 3 4 3 7 9 10 9 10 11 11 12 13 13 14 15 15 15 16 16 16 16 17 17 17 17 17 17 17 17 17 17 17 17 17 16
0 1 1 1 1 2 2 2 2 3 5 7 8 8 7 7 10 11 11 11 12 12 14 14 15 15 15 16 16 16 16 17 16 17 17 17 17 17 16 16 16 16 15 15
-2 -1 -0 -1 -0 0 1 1 2 3 4 6 7 7 8 8 10 11 11 12 11 12 13 14 14 15 15 15 16 16 16 16 16 16 16 16 15 15 15 15 15 16 16 16
-2 -2 -2 -1 -0 -1 -1 0 3 2 4 6 7 7 7 7 10 10 11 11 11 12 12 13 14 14 14 15 15 15 15 15 15 15 15 15 16 16 15 15 15 15 15 15
-1 -2 -1 -1 -1 -2 -1 -0 0 4 6 6 6 6 6 9 10 10 10 10 9 11 11 12 12 13 13 13 13 14 14 14 14 14 14 14 13 13 14 14 14 14 14 14
-1 0 -1 -2 -1 -1 -1 -0 -1 0 1 3 6 7 7 8 9 9 7 7 10 9 9 8 9 9 10 11 12 12 12 13 13 13 13 13 13 13 14 14 13 14 14 14
-2 -0 -1 -2 -2 -1 -3 -2 -1 1 0 0 1 1 3 4 4 5 7 7 6 6 7 7 7 8 8 9 10 11 11 12 12 12 12 12 13 13 13 13 13 13 13 13
-2 -2 -1 -1 -2 -2 -1 -1 -1 -1 -1 0 1 2 3 4 5 3 5 6 7 7 7 7 7 8 8 9 9 9 9 10 10 11 11 11 11 11 11 11 11 11 10 10
-2 -2 -2 -2 -2 -1 -1 -1 -2 -1 -0 0 1 3 3 4 4 4 5 5 5 5 6 5 5 6 6 5 5 7 9 8 8 9 9 9 9 9 9 9 9 9 9 9
-2 -2 -2 -2 -2 -2 -1 -1 -0 -0 -0 0 2 3 3 3 3 4 5 5 4 5 3 4 4 5 4 4 5 5 6 6 6 7 7 7 7 7 7 7 7 7 7 7
-4 -3 -3 -3 -3 -3 -2 -0 -0 -0 -0 0 1 2 1 2 2 3 3 3 2 2 2 3 4 5 4 3 5 4 4 4 4 5 5 6 6 5 5 4 4 5 5 5
-4 -3 -4 -3 -3 -3 -2 -2 -2 -2 -1 -1 -0 -0 -0 -0 -0 0 0 0 0 0 0 1 1 1 2 2 3 3 2 2 2 3 3 3 3 3 3 3 4 4 4 4
-5 -5 -4 -4 -4 -4 -3 -3 -3 -3 -2 -3 -2 -2 -2 -2 -2 -2 -1 -1 -1 -1 -1 -0 -0 -0 -0 0 0 1 1 1 1 1 2 2 2 2 2 2 2 2 2 2
-5 -5 -5 -5 -5 -5 -4 -4 -5 -4 -3 -3 -2 -3 -3 -3 -3 -3 -3 -3 -3 -3 -2 -2 -1 -0 -0 0 1 1 0 0 1 1 1 1 1 1 1 1 2 2 2 2
-6 -6 -5 -5 -6 -6 -6 -7 -6 -5 -5 -4 -4 -3 -3 -3 -3 -3 -3 -3 -1 -1 -1 -1 -1 0 1 1 1 1 1 1 1 1 0 0 0 0 0 0 0 0 0 1
-6 -6 -7 -7 -6 -6 -6 -6 -5 -5 -5 -4 -4 -3 -3 -3 -2 -2 -2 -2 -1 -1 -1 -1 -1 -1 -0 -0 -0 0 0 -0 -0 -0 -0 -1 -1 -0 0 0 0 -0 -0 0
-6 -7 -7 -7 -7 -8 -8 -8 -8 -5 -5 -5 -4 -4 -3 -3 -3 -3 -3 -3 -2 -2 -2 -1 -1 -1 -1 -1 -1 -1 -0 -0 -1 -1 -1 -1 -1 -1 -1 -1 -0 0 0 -0

GFSNGP_700_temp_033.txt.gz
Temp
10 13 14 15 16 16 16 16 16 16 17 19 19 19 19 19 19 19 19 19 18 18 18 17 17 17 17 16 16 16 16 16 16 16 16 16 16 16 16 16 15 15 15 14
10 12 12 13 16 16 16 16 16 17 17 18 18 19 18 18 19 18 18 18 18 18 18 17 17 17 18 17 16 16 16 16 16 16 16 16 16 16 16 16 16 16 16 16
8 11 12 13 14 16 16 16 17 17 18 18 18 18 18 18 18 18 18 18 17 16 16 16 17 17 17 17 17 17 17 17 17 17 17 17 16 16 16 16 16 16 16 16
7 10 10 13 14 15 16 17 17 17 18 17 17 17 16 17 17 16 16 16 16 16 15 15 15 15 16 16 16 17 18 18 18 18 18 17 17 17 16 16 16 16 16 16
5 9 11 12 12 13 16 13 14 15 17 17 16 16 15 15 15 16 16 16 16 15 15 15 15 15 15 16 16 17 17 18 18 18 18 18 18 18 17 17 17 17 17 17
4 7 10 7 11 13 13 10 10 14 15 16 15 16 14 14 14 15 15 15 15 15 15 15 15 15 16 16 16 17 17 17 17 17 18 18 18 18 18 17 17 17 17 17
4 5 5 7 9 12 11 4 7 11 13 14 14 11 12 14 14 15 15 16 16 16 16 15 15 15 15 15 15 16 16 16 16 17 17 18 17 18 18 18 17 18 18 18
4 4 2 2 5 6 4 4 6 7 8 9 8 8 10 12 13 13 14 14 14 14 14 15 15 15 15 15 15 15 15 16 16 16 16 17 17 17 18 18 18 18 18 18
0 0 -1 0 2 2 4 4 4 5 6 6 7 8 9 10 11 12 13 14 14 13 14 14 14 15 15 15 15 15 15 16 16 17 17 17 17 17 17 18 18 18 18 18
0 0 -1 -1 -1 1 2 3 3 4 4 5 6 7 9 10 10 11 13 14 14 13 13 13 14 14 14 14 15 15 15 15 16 16 16 16 17 17 17 17 17 17 17 17
-1 -0 -0 1 -1 -1 2 2 3 3 4 4 5 7 8 11 11 12 12 13 13 13 13 13 14 14 14 14 15 15 15 16 16 16 16 16 16 17 17 17 16 16 16 16
-2 -1 -2 0 2 2 2 2 2 3 4 5 6 7 8 10 11 11 12 13 12 12 13 13 13 13 14 15 15 15 15 16 16 16 16 16 16 16 17 17 16 16 16 16
1 1 1 1 1 1 1 2 1 2 3 3 6 7 7 10 11 12 12 12 12 12 12 13 13 13 14 14 15 15 15 15 15 16 16 16 16 16 16 16 16 16 16 16
-0 0 3 2 2 2 1 1 2 3 4 4 6 6 7 8 11 10 10 11 10 11 12 12 12 12 13 14 14 15 15 15 15 15 15 15 15 16 15 15 16 16 15 14
1 0 2 3 2 2 1 1 2 3 5 5 6 7 7 8 9 10 10 10 10 10 10 12 12 13 12 13 13 13 13 14 14 14 13 13 13 13 14 14 14 14 14 14
-2 -1 1 1 2 2 2 1 1 1 2 5 7 7 7 7 8 9 9 9 8 7 9 11 12 12 11 12 11 12 12 11 12 12 12 12 13 13 13 13 13 14 13 13
-3 -2 -2 -0 1 1 1 0 0 1 1 3 3 4 6 8 7 8 8 9 6 6 8 8 6 7 7 9 10 10 10 11 11 11 11 11 11 11 12 12 12 12 12 12
-3 -3 -1 1 1 0 0 -0 -0 0 1 2 2 4 3 4 7 8 9 8 7 7 8 8 6 5 6 7 8 9 9 10 10 10 11 11 10 10 10 11 11 11 11 11
-3 -2 -2 -1 -1 -1 -2 -1 -1 -0 0 1 1 2 2 3 4 6 4 4 3 3 3 4 5 5 6 6 7 8 8 8 9 9 9 9 9 9 9 9 9 9 9 9
-3 -3 -2 -2 -2 -2 -2 -2 -1 -1 -0 -0 0 1 1 1 1 1 2 3 3 3 5 5 5 6 6 5 6 5 6 7 7 8 8 8 7 7 7 7 7 7 7 7
-4 -3 -3 -4 -4 -3 -2 -3 -2 -1 -1 -1 -1 -1 1 1 2 1 3 3 4 4 5 3 5 5 6 6 6 5 5 6 5 6 6 6 6 6 6 6 5 5 5 5
-5 -5 -4 -4 -4 -4 -4 -3 -3 -3 -2 -2 -2 -2 -0 1 1 2 2 2 3 3 3 4 4 4 4 4 3 3 4 3 4 5 5 4 4 4 3 4 4 4 4 4
-5 -5 -5 -5 -5 -5 -4 -4 -4 -3 -3 -3 -2 -2 -1 -1 -0 1 1 0 0 0 0 1 1 2 1 1 1 1 0 0 0 1 2 2 2 2 2 2 2 3 3 3
-6 -6 -6 -6 -5 -5 -3 -2 -4 -4 -4 -3 -3 -3 -3 -2 -2 -2 -1 -1 -0 -1 -1 -0 -1 -1 -1 -1 -1 -1 -2 -1 -1 -1 -1 -1 1 1 2 2 3 3 2 2
-7 -6 -7 -6 -6 -7 -6 -5 -4 -3 -3 -3 -3 -4 -4 -4 -4 -4 -3 -2 -2 -4 -4 -2 -2 -2 -2 -2 -3 -2 -2 -1 -0 1 1 1 0 0 1 1 1 1 1 2
-7 -7 -7 -7 -7 -7 -7 -7 -7 -7 -6 -4 -4 -4 -4 -3 -3 -3 -3 -3 -2 -2 -2 -2 -1 -1 -1 -1 -1 -1 -1 -1 -1 -0 0 -0 -1 -0 -0 0 1 0 0 0
-7 -7 -7 -7 -8 -8 -8 -8 -8 -8 -8 -6 -5 -5 -4 -4 -5 -5 -4 -4 -3 -2 -2 -2 -2 -2 -2 -2 -2 -2 -2 -2 -2 -1 -2 -2 -2 -2 -1 -0 -0 0 -1 -1